Weather History for Parkersburg, WV

Change the Weather History Date:

Saturday, May 18, 2013

  Actual Average Record
Temperature  
Mean Temperature 70 °F 63 °F  
Max Temperature 81 °F 74 °F 95 °F (1962)
Min Temperature 58 °F 51 °F 33 °F (1973)
Degree Days  
Heating Degree Days 0 5  
Month to date heating degree days 71 105  
Since 1 July heating degree days 4941 4911  
Cooling Degree Days 5 2  
Month to date cooling degree days 28 25  
Year to date cooling degree days 57 46  
Growing Degree Days 19 (Base 50)    
Moisture  
Dew Point 60 °F    
Average Humidity 76    
Maximum Humidity 97    
Minimum Humidity 54    
Precipitation  
Precipitation 0.73 in 0.13 in 1.12 in (2010)
Month to date precipitation 2.63 2.40  
Year to date precipitation 12.46 15.05  
Sea Level Pressure  
Sea Level Pressure 30.08 in    
Wind  
Wind Speed 3 mph (SE)    
Max Wind Speed 15 mph    
Max Gust Speed 26 mph    
Visibility 5 miles    
Events Fog , Rain , Thunderstorm    
T = Trace of Precipitation, MM = Missing Value Source: NWS Daily Summary

Daily Weather History Graph

Daily Weather History Graph

Search for Another Location

Airport:

Trip Planner

Search our weather history database for the weather conditions in past years. The results will help you decide how hot, cold, wet, or windy it might be!

Date:

Astronomy

May. 18, 2013 Rise Set
Actual Time 6:09 AM EDT 8:35 PM EDT
Civil Twilight 5:38 AM EDT 9:06 PM EDT
Nautical Twilight 5:01 AM EDT 9:44 PM EDT
Astronomical Twilight 4:19 AM EDT 10:26 PM EDT
Moon 1:39 PM EDT (5/18) 1:58 AM EDT (5/18)
Length of Visible Light 15h 27m
Length of Day
14h 26m
First Quarter, 55% of the Moon is Illuminated
May 18
First Quarter
May 25
Full
May 31
Last Quarter
Jun 8
New
Jun 16
First Quarter

Hourly Weather History & Observations

Time (EDT) Temp. Heat Index Dew Point Humidity Pressure Visibility Wind Dir Wind Speed Gust Speed Precip Events Conditions
12:53 AM 64.0 °F - 61.0 °F 90% 30.09 in 7.0 mi Calm Calm - N/A   Clear
1:53 AM 62.1 °F - 60.1 °F 93% 30.09 in 5.0 mi Calm Calm - N/A   Clear
2:04 AM 60.8 °F - 60.8 °F 100% 30.10 in 1.8 mi Calm Calm - N/A   Clear
2:24 AM 60.8 °F - 59.0 °F 94% 30.09 in 2.5 mi Calm Calm - N/A   Clear
2:33 AM 60.8 °F - 59.0 °F 94% 30.09 in 4.0 mi Calm Calm - N/A   Clear
2:53 AM 60.1 °F - 59.0 °F 96% 30.08 in 4.0 mi SE 3.5 mph - N/A   Clear
3:53 AM 59.0 °F - 57.9 °F 96% 30.07 in 3.0 mi Calm Calm - N/A   Clear
4:30 AM 59.0 °F - 57.2 °F 94% 30.09 in 2.5 mi Calm Calm - N/A   Clear
4:39 AM 60.8 °F - 57.2 °F 88% 30.09 in 3.0 mi Calm Calm - N/A   Clear
4:53 AM 59.0 °F - 57.9 °F 96% 30.07 in 4.0 mi Calm Calm - N/A   Clear
5:28 AM 59.0 °F - 57.2 °F 94% 30.09 in 4.0 mi Calm Calm - N/A   Scattered Clouds
5:40 AM 59.0 °F - 57.2 °F 94% 30.09 in 3.0 mi Calm Calm - N/A   Mostly Cloudy
5:50 AM 57.2 °F - 57.2 °F 100% 30.10 in 2.0 mi ESE 3.5 mph - N/A   Overcast
5:53 AM 59.0 °F - 57.0 °F 93% 30.09 in 1.8 mi ESE 3.5 mph - N/A   Overcast
6:00 AM 59.0 °F - 57.2 °F 94% 30.10 in 0.5 mi ESE 3.5 mph - N/A Fog Fog
6:06 AM 59.0 °F - 59.0 °F 100% 30.10 in 0.5 mi Calm Calm - N/A Fog Fog
6:33 AM 60.8 °F - 59.0 °F 94% 30.10 in 1.2 mi Calm Calm - N/A   Mostly Cloudy
6:42 AM 60.8 °F - 59.0 °F 94% 30.11 in 1.2 mi Calm Calm - N/A   Partly Cloudy
6:53 AM 60.1 °F - 59.0 °F 96% 30.09 in 1.8 mi North - - N/A   Clear
7:22 AM 60.8 °F - 60.8 °F 100% 30.12 in 2.0 mi Calm Calm - N/A   Clear
7:53 AM 62.1 °F - 60.1 °F 93% 30.11 in 3.0 mi Calm Calm - N/A   Mostly Cloudy
8:53 AM 63.0 °F - 60.1 °F 90% 30.11 in 5.0 mi Calm Calm - N/A   Mostly Cloudy
9:53 AM 66.0 °F - 61.0 °F 84% 30.11 in 8.0 mi ENE 3.5 mph - N/A   Clear
10:53 AM 68.0 °F - 62.1 °F 81% 30.12 in 9.0 mi NE 4.6 mph - N/A   Overcast
11:53 AM 70.0 °F - 63.0 °F 78% 30.11 in 10.0 mi Calm Calm - N/A   Overcast
12:53 PM 73.9 °F - 64.0 °F 71% 30.10 in 10.0 mi SE 5.8 mph - N/A   Mostly Cloudy
1:53 PM 75.9 °F - 62.1 °F 62% 30.08 in 10.0 mi South 4.6 mph - N/A   Partly Cloudy
3:53 PM 80.1 °F 81.5 °F 63.0 °F 56% 30.04 in 10.0 mi SSW 5.8 mph - N/A   Partly Cloudy
4:53 PM 81.0 °F 82.2 °F 63.0 °F 54% 30.03 in 10.0 mi Variable 3.5 mph - N/A   Partly Cloudy
5:55 PM 71.6 °F - 59.0 °F 64% 30.06 in 0.8 mi NE 11.5 mph 26.5 mph 0.14 in Rain Heavy Rain
6:05 PM 68.0 °F - 60.8 °F 78% 30.05 in 0.5 mi Calm Calm - 0.46 in Rain , Thunderstorm Heavy Thunderstorms and Rain
6:14 PM 69.8 °F - 60.8 °F 73% 30.05 in 1.5 mi Calm Calm - 0.50 in Rain Rain
6:21 PM 69.8 °F - 64.4 °F 83% 30.05 in 2.0 mi Variable 3.5 mph - 0.52 in Rain , Thunderstorm Thunderstorms and Rain
6:30 PM 71.6 °F - 62.6 °F 73% 30.05 in 5.0 mi South 4.6 mph - 0.53 in Rain Light Rain
6:53 PM 71.1 °F - 63.0 °F 75% 30.05 in 10.0 mi SSW 4.6 mph - 0.53 in Rain Light Rain
7:53 PM 66.9 °F - 64.0 °F 90% 30.04 in 9.0 mi Calm Calm - 0.00 in   Clear
8:53 PM 66.0 °F - 64.9 °F 96% 30.05 in 7.0 mi Calm Calm - N/A   Partly Cloudy
9:53 PM 66.0 °F - 62.1 °F 87% 30.06 in 10.0 mi Calm Calm - N/A   Partly Cloudy
10:53 PM 64.9 °F - 62.1 °F 90% 30.06 in 9.0 mi Calm Calm - N/A   Partly Cloudy
11:53 PM 64.0 °F - 61.0 °F 90% 30.06 in 10.0 mi Calm Calm - N/A   Mostly Cloudy